Inquirer Daily News

Weather

Get conditions and forecasts for any City, State, ZIP code or Country:  
Trenton, NJ
on Monday, November 19, 2012

Monday
Previous Day Next Day
Daily Summary
 ActualAverageRecord
Temperature
Mean Temperature °F 45°F  
Max Temperature 51°F 53°F 74°F (1921)
Min Temperature 36°F 36°F 17°F (1936)
Degree Days
Heating Degree Days 21 20  
Month to date heating degree days 413 333  
Since 1 July heating degree days 720 730  
Cooling Degree Days 0 0  
Month to date cooling degree days 0 0  
Year to date cooling degree days 1234 965  
Moisture
Dew Point 35°F   
Average Humidity 72    
Maximum Humidity 82    
Minimum Humidity 61    
Precipitation
Precipitation 0.00 in 0.11 in 2.07 in (2003)
Month to date precipitation 0.58 2.00  
Year to date precipitation 32.63 41.43  
Wind
Wind Speed 7 mph   
Max Wind Speed 13 mph   
Max Gust Speed 17 mph   
Visibility 10 miles   
Events     

Key: T is trace of precipitation, MM is missing value
Source: NWS Daily Summary
Time(EST)TemperatureDew PointHumidity Pressure Visibility Wind DirectionWind SpeedGust SpeedPrecipitationEvents Conditions
12:39 AM 41.0°F 33.8°F 76% 30.53 in 10.0 miles NE 5.8 mph - N/A   Mostly Cloudy
12:53 AM 41.0°F 33.1°F 73% 30.51 in 10.0 miles NE 6.9 mph - N/A   Overcast
1:53 AM 39.9°F 33.1°F 77% 30.50 in 10.0 miles NE 6.9 mph - N/A   Clear
2:53 AM 39.0°F 33.1°F 79% 30.49 in 10.0 miles NE 10.4 mph - N/A   Clear
3:53 AM 39.0°F 33.1°F 79% 30.48 in 10.0 miles NE 8.1 mph - N/A   Scattered Clouds
4:53 AM 37.9°F 32.0°F 79% 30.47 in 10.0 miles NE 9.2 mph - N/A   Partly Cloudy
5:53 AM 37.0°F 30.9°F 79% 30.46 in 10.0 miles NE 10.4 mph - N/A   Clear
6:53 AM 36.0°F 30.9°F 82% 30.45 in 10.0 miles NE 8.1 mph - N/A   Clear
7:53 AM 36.0°F 30.9°F 82% 30.45 in 10.0 miles NE 8.1 mph - N/A   Clear
8:53 AM 39.0°F 32.0°F 76% 30.44 in 10.0 miles NE 10.4 mph - N/A   Clear
9:53 AM 43.0°F 34.0°F 71% 30.43 in 10.0 miles ENE 8.1 mph - N/A   Clear
10:53 AM 45.0°F 36.0°F 71% 30.42 in 10.0 miles NE 6.9 mph - N/A   Clear
11:53 AM 48.0°F 37.0°F 66% 30.38 in 10.0 miles East 8.1 mph - N/A   Partly Cloudy
12:53 PM 50.0°F 37.9°F 63% 30.35 in 10.0 miles Variable 5.8 mph - N/A   Clear
1:48 PM 50.0°F 37.4°F 62% 30.34 in 10.0 miles ENE 10.4 mph - N/A   Mostly Cloudy
1:53 PM 50.0°F 37.9°F 63% 30.33 in 10.0 miles NE 9.2 mph - N/A   Mostly Cloudy
2:53 PM 50.0°F 37.9°F 63% 30.31 in 10.0 miles East 9.2 mph - N/A   Overcast
3:53 PM 48.9°F 37.9°F 66% 30.31 in 10.0 miles ENE 5.8 mph - N/A   Overcast
4:53 PM 48.0°F 37.0°F 66% 30.31 in 10.0 miles ENE 8.1 mph - N/A   Overcast
5:53 PM 46.9°F 37.0°F 68% 30.30 in 10.0 miles ENE 6.9 mph - N/A   Overcast
6:22 PM 46.4°F 37.4°F 71% 30.31 in 10.0 miles NE 5.8 mph - N/A   Overcast
6:53 PM 46.9°F 36.0°F 66% 30.30 in 10.0 miles NE 5.8 mph - N/A   Overcast
7:29 PM 46.4°F 37.4°F 71% 30.30 in 10.0 miles NE 5.8 mph - N/A   Overcast
7:53 PM 46.9°F 37.0°F 68% 30.28 in 10.0 miles NE 6.9 mph - N/A   Overcast
8:53 PM 46.0°F 37.0°F 71% 30.27 in 10.0 miles NE 5.8 mph - N/A   Overcast
10:53 PM 46.0°F 37.9°F 73% 30.24 in 10.0 miles Calm Calm - N/A   Overcast
11:53 PM 46.0°F 37.9°F 73% 30.23 in 10.0 miles Calm Calm - N/A   Overcast
Astronomy
Sunrise:06:50 AM (EST) Moon Rise:11:51 AM (EST)11/19
Sunset:04:39 PM (EST) Moon Set:11:03 PM (EST)11/19
Moon Phase
Nov. 19 Nov. 20 Nov. 28 Dec. 06 Dec. 13

Copyright © 2014 The Weather Underground, Inc.